{"data":{"norad_id":66513,"epoch":"2026-05-24T20:13:02.680896Z","epoch_age_seconds":88287,"freshness":"FRESH","line1":"1 66513U 25263AE  26144.84239214  .00026283  00000+0  96037-3 0  9997","line2":"2 66513  42.9971 280.7803 0001334 282.5236  77.5466 15.27608960 30543","mean_motion":15.2760896,"eccentricity":0.0001334,"inclination_deg":42.9971,"raan_deg":280.7803,"arg_perigee_deg":282.5236,"mean_anomaly_deg":77.5466,"bstar":0.00096037,"rev_number":3054,"period_min":94.264961629971,"perigee_km":482.04711009392,"apogee_km":483.8776514087,"semimajor_km":6861.0993807513,"source":"CELESTRAK","updated_at":"2026-05-25T13:38:21.248510Z"}}